Find Starlink 32080

NORAD ID: 59683 Int'l Des: 2024-086 Owner: SPXS Country: US Constellation: starlink operational
LEOCIRCULAR

現在のビュー

3D地球を読み込み中...

About Starlink 32080

Starlink 32080 (NORAD 59683) is a starlink constellation satellite (v2 mini) launched May 8, 2024 by SPXS of US. It operates in LEO, CIRCULAR orbit with a mass of 730.00 kg.

Starlink 32080について

説明を読み込み中...

次回通過

Passes for default location (London). Set your location on the main map for personalized predictions.

高度履歴

Loading altitude history...

軌道要素

1 59683U 24086B 26170.41099462 .00000391 00000-0 23735-4 0 9999
2 59683 42.9994 209.3288 0001304 275.9584 84.1119 15.27575649119635
Epoch: Jun 19, 2026 • Age: 19 hours

現在のステータス

高度 486.2 km
速度 7.63 km/s
衛星直下点 39.41°N, 77.28°W
打ち上げ日 May 8, 2024
運用期間 2.1 years
タイプ internet

技術仕様

分類 Payload
質量 730.00 kg
乾燥質量 700.00 kg
総質量 730.00 kg
長さ 0.30 m
直径 4.10 m
スパン 29.00 m
形状 Box + pan
製造者 SPXS
バスタイプ Starlink V2M
フェーズステータス In Orbit
所有者/国 SPXS/US

Most Searched